Location: San Martino di Castrozza
(46.2667°N, 11.8000°E)
Time: 15:38:36
(UTC+00:00)

COSMOS 2487 - Pass Details

Date: 23 April 2021
Orbit: 432 x 434 km, 74.7° (Epoch: 12 May)

Event Time Altitude Azimuth Distance (km) Brightness Sun altitude
Rises 03:28:37 0° 345° (NNW) 2,428 6.3 -7.7°
Reaches altitude 10° 03:30:46 10° 353° (N) 1,553 5.4 -7.4°
Maximum altitude 03:34:01 41° 65° (ENE) 650 4.0 -6.9°
Drops below altitude 10° 03:37:14 10° 137° (SE) 1,539 5.3 -6.4°
Sets 03:39:22 0° 145° (SE) 2,401 6.2 -6.1°
